Regional Weather Roundup
Issued by NWS

Home | Current Version | Previous Version | Graphics & Text | Print | Product List | Glossary On
Versions: 1 2 3 4 5 6 7 8 9 10 11 12 13 14 15 16 17 18 19 20 21 22 23 24 25 26 27 28 29 30 31 32 33 34 35 36 37 38 39 40 41 42 43 44 45 46 47 48 49 50
000
ASUS43 KOAX 220302
RWRNE

WEATHER ROUNDUP FOR NEBRASKA
NATIONAL WEATHER SERVICE OMAHA NE
1000 PM CDT THU MAY 21 2015

NOTES: SATELLITE DATA IS BEING USED TO AUGMENT CLOUD COVER ABOVE
       12000 FEET.
       "FAIR" INDICATES FEW OR NO CLOUDS BELOW 12,000 FEET WITH NO
       SIGNIFICANT WEATHER AND/OR OBSTRUCTIONS TO VISIBILITY.

  * THESE STATIONS DO NOT REPORT WEATHER SUCH AS RAIN...SNOW OR FOG.

NEZ001>004-019>022-054>056-220400-
NEBRASKA PANHANDLE

CITY           SKY/WX    TMP DP  RH WIND       PRES   REMARKS
SCOTTSBLUFF    CLOUDY    53  45  74 SE13      30.13R
ALLIANCE       CLOUDY    53  44  71 SE12      30.14R
CHADRON        CLOUDY    54  45  71 SE8       30.12S
SIDNEY         CLOUDY    51  44  77 SE20G26   30.16R
$$

NEZ057>060-069>072-079>082-220400-
SOUTHWEST NEBRASKA

CITY           SKY/WX    TMP DP  RH WIND       PRES   REMARKS
NORTH PLATTE   CLOUDY    55  42  61 S6        30.19R
IMPERIAL       CLOUDY    53  44  71 SE6       30.18R
MCCOOK         CLOUDY    54  42  64 SE8       30.19R
$$

NEZ005>010-023>029-035>040-094-220400-
NORTH CENTRAL NEBRASKA

CITY           SKY/WX    TMP DP  RH WIND       PRES   REMARKS
VALENTINE      CLEAR     54  36  50 SE8       30.17R
AINSWORTH      CLEAR     52  37  56 SE6       30.18R
BROKEN BOW     PTCLDY    51  42  71 CALM      30.19R
ORD            CLEAR     49  40  71 SW5       30.18R
$$

NEZ041-046>049-061>064-073>077-083>087-220400-
SOUTH CENTRAL NEBRASKA

CITY           SKY/WX    TMP DP  RH WIND       PRES   REMARKS
GRAND ISLAND   PTCLDY    52  41  66 SW3       30.21R
HASTINGS       MOCLDY    57  38  48 S3        30.21R
KEARNEY *      MOCLDY    55  39  54 S6        30.21R
$$

NEZ011>018-030>034-042>045-220400-
NORTHEAST NEBRASKA

CITY           SKY/WX    TMP DP  RH WIND       PRES   REMARKS
NORFOLK        CLEAR     53  42  66 SW6       30.17R
COLUMBUS *     CLEAR     61  37  41 SW6       30.21R
TEKAMAH        CLEAR     58  42  55 W8        30.14R
$$

NEZ050>053-065>068-078-088>093-220400-
SOUTHEAST NEBRASKA

CITY           SKY/WX    TMP DP  RH WIND       PRES   REMARKS
LINCOLN        PTCLDY    61  41  47 SW3       30.20R
OMAHA EPPLEY   PTCLDY    65  40  39 SW7       30.15R
FALLS CITY     PTCLDY    59  43  55 SW6       30.18S
$$

NEZ044-045-051>053-067-220400-
OMAHA AREA

CITY           SKY/WX    TMP DP  RH WIND       PRES   REMARKS
OMAHA EPPLEY   PTCLDY    65  40  39 SW7       30.15R
OFFUTT AFB     CLEAR     60  42  49 SW6       30.16R
$$



USA.gov is the U.S. government's official web portal to all federal, state and local government web resources and services.